Flag for France Weather past 2 weeks in Aurillac, France

Now
47 °F

Cool.


Feels Like: 47 °F
Forecast: 42 / 66 °F
Wind: No wind

Location: Aurillac

Current Time: Sep 5, 2015 at 3:49:37 AM

Latest Report: Sep 5, 2015 at 2:00 AM


Visibility: 37 mi

Pressure: 30.11 "Hg (27.90 "Hg at 627m altitude)

Humidity: 85%

Dew point: 42 °F

Location of AurillacLocation

Historic Weather in Aurillac — Graph

°F

Aurillac temperature yesterday

Maximum temperature yesterday: 64 °F (at 4:00 PM)
Minimum temperature yesterday: 47 °F (at 4:00 AM)
Average temperature yesterday: 55 °F

Past Weeks' High & Low Weather Summary

 TemperatureHumidityPressure
High83 °F (Aug 29, 4:00 PM)96% (Aug 23, 11:00 AM)30.22 "Hg (Aug 23, 11:00 AM)
Low44 °F (Sep 2, 7:00 AM)28% (Aug 21, 7:00 PM)29.65 "Hg (Aug 24, 4:00 AM)
Average64 °F68%30.00 "Hg
* Reported Aug 21 2:00 AM — Sep 5 2:00 AM, Aurillac, Weather by CustomWeather, © 2015

Note: Actual official high and low records may vary slightly from our data, if they occured in-between our weather recording intervals... More about our weather records

Advertising

Aurillac weather history for previous 24 hours

 ConditionsComfort  
Time TempWeatherWind HumidityBarometerVisibility
2:00 AM
Sat, Sep 5
47 °FCool.No wind85%30.11 "Hg37 mi
7:00 PM
Fri, Sep 4
62 °FRefreshingly cool.8 mph47%29.99 "Hg37 mi
6:00 PM63 °FMild.8 mph47%29.98 "Hg37 mi
5:00 PM64 °FPartly sunny.9 mph47%29.98 "Hg25 mi
4:00 PM64 °FPartly sunny.10 mph42%29.98 "Hg25 mi
3:00 PM63 °FPassing clouds.7 mph46%30.00 "Hg25 mi
2:00 PM63 °FPassing clouds.3 mph52%30.01 "Hg25 mi
1:00 PM61 °FPassing clouds.6 mph54%30.04 "Hg25 mi
12:00 PM60 °FScattered clouds.7 mph63%30.05 "Hg25 mi
11:00 AM56 °FPassing clouds.3 mph81%30.06 "Hg22 mi
10:00 AM52 °FPassing clouds.2 mph95%30.07 "Hg19 mi
9:00 AM49 °FFog.No wind96%30.09 "Hg1 mi
8:00 AM47 °FFog.3 mph96%30.09 "Hg0 mi
7:00 AM48 °FFog.3 mph96%30.07 "Hg0 mi
6:00 AM48 °FFog.No wind95%30.07 "Hg1 mi
5:00 AM48 °FLight snow. Dense fog.3 mph95%30.08 "Hg0 mi
4:00 AM47 °FLight snow. Dense fog.2 mph94%30.09 "Hg0 mi
3:00 AM48 °FHeavy rain. Overcast.1 mph92%30.09 "Hg0 mi
Weather by CustomWeather, © 2015

See weather overviewHow to use our weather pages